QPF
0.00 0.00 0.00 0.00 0.01 0.02 0.03 0.06 0.10 0.11 0.08 0.07 0.08 0.07 0.06 0.07 0.07 0.07 0.07 0.08 0.07 0.06 0.05 0.04 0.03 0.02 0.02 0.01 0.01 0.01 0.01 0.01 0.01 0.02 0.02 0.04 0.05 0.07
0.00 0.00 0.00 0.00 0.00 0.01 0.02 0.03 0.07 0.10 0.11 0.10 0.12 0.12 0.09 0.09 0.09 0.08 0.07 0.08 0.07 0.05 0.04 0.03 0.02 0.02 0.01 0.01 0.00 0.00 0.00 0.01 0.01 0.01 0.01 0.02 0.02 0.02
0.00 0.00 0.00 0.00 0.00 0.00 0.00 0.02 0.04 0.07 0.10 0.11 0.13 0.17 0.15 0.12 0.12 0.10 0.09 0.09 0.07 0.05 0.03 0.02 0.02 0.01 0.01 0.01 0.00 0.00 0.00 0.01 0.01 0.01 0.01 0.01 0.01 0.01
0.00 0.00 0.00 0.00 0.00 0.00 0.00 0.01 0.02 0.04 0.07 0.09 0.13 0.20 0.20 0.18 0.16 0.13 0.10 0.09 0.07 0.06 0.04 0.02 0.01 0.01 0.00 0.00 0.00 0.00 0.00 0.00 0.00 0.00 0.00 0.00 0.00 0.01
0.00 0.00 0.00 0.00 0.00 0.00 0.00 0.00 0.01 0.02 0.05 0.08 0.10 0.16 0.22 0.24 0.21 0.16 0.12 0.09 0.07 0.06 0.04 0.02 0.01 0.01 0.00 0.00 0.00 0.00 0.00 0.00 0.00 0.00 0.00 0.00 0.00 0.00
0.00 0.00 0.00 0.00 0.00 0.00 0.00 0.00 0.00 0.01 0.03 0.06 0.09 0.14 0.22 0.25 0.24 0.19 0.13 0.08 0.06 0.04 0.04 0.03 0.02 0.01 0.00 0.00 0.00 0.00 0.00 0.00 0.00 0.00 0.00 0.00 0.00 0.00
0.00 0.00 0.00 0.00 0.00 0.00 0.00 0.00 0.00 0.00 0.01 0.03 0.07 0.13 0.21 0.24 0.23 0.19 0.15 0.10 0.05 0.04 0.03 0.02 0.01 0.01 0.00 0.00 0.01 0.01 0.01 0.01 0.01 0.01 0.00 0.00 0.00 0.00
0.00 0.00 0.00 0.00 0.00 0.00 0.00 0.00 0.00 0.00 0.00 0.02 0.05 0.09 0.18 0.24 0.26 0.26 0.19 0.10 0.05 0.03 0.02 0.02 0.01 0.01 0.00 0.00 0.01 0.01 0.01 0.01 0.01 0.01 0.01 0.01 0.01 0.01
0.00 0.00 0.00 0.00 0.00 0.00 0.00 0.01 0.00 0.00 0.00 0.01 0.02 0.06 0.14 0.26 0.31 0.28 0.21 0.15 0.08 0.03 0.01 0.01 0.02 0.01 0.01 0.01 0.02 0.01 0.01 0.01 0.01 0.01 0.01 0.01 0.01 0.01
0.00 0.00 0.00 0.00 0.00 0.00 0.00 0.00 0.00 0.00 0.00 0.00 0.01 0.03 0.10 0.24 0.37 0.39 0.33 0.26 0.15 0.06 0.02 0.01 0.02 0.02 0.01 0.01 0.03 0.02 0.02 0.01 0.01 0.01 0.01 0.01 0.01 0.01
0.00 0.00 0.00 0.00 0.00 0.00 0.00 0.00 0.00 0.00 0.00 0.00 0.00 0.02 0.07 0.18 0.34 0.50 0.46 0.32 0.19 0.09 0.03 0.01 0.01 0.01 0.02 0.02 0.03 0.04 0.04 0.03 0.02 0.01 0.01 0.01 0.01 0.01
0.00 0.00 0.00 0.00 0.00 0.01 0.01 0.00 0.01 0.01 0.01 0.01 0.01 0.01 0.04 0.10 0.23 0.39 0.50 0.38 0.23 0.12 0.05 0.01 0.01 0.00 0.01 0.02 0.01 0.02 0.02 0.04 0.03 0.02 0.02 0.01 0.01 0.00
0.00 0.00 0.00 0.00 0.00 0.01 0.01 0.01 0.01 0.01 0.01 0.01 0.01 0.01 0.02 0.07 0.15 0.28 0.40 0.44 0.32 0.15 0.08 0.04 0.02 0.01 0.00 0.01 0.01 0.01 0.01 0.01 0.01 0.02 0.02 0.02 0.01 0.00
0.00 0.00 0.00 0.00 0.01 0.01 0.02 0.02 0.02 0.02 0.02 0.02 0.02 0.01 0.02 0.04 0.09 0.20 0.31 0.37 0.38 0.27 0.14 0.08 0.05 0.02 0.01 0.00 0.00 0.01 0.01 0.01 0.00 0.00 0.00 0.01 0.01 0.00
0.01 0.01 0.01 0.01 0.01 0.02 0.03 0.04 0.05 0.04 0.03 0.03 0.02 0.01 0.01 0.02 0.07 0.16 0.31 0.41 0.41 0.35 0.26 0.13 0.07 0.04 0.02 0.01 0.00 0.00 0.00 0.01 0.01 0.00 0.00 0.00 0.00 0.00
0.02 0.02 0.02 0.02 0.03 0.04 0.04 0.05 0.06 0.06 0.05 0.04 0.03 0.03 0.03 0.03 0.05 0.12 0.27 0.40 0.42 0.38 0.29 0.20 0.11 0.05 0.03 0.01 0.00 0.00 0.00 0.00 0.00 0.00 0.00 0.00 0.00 0.00
0.01 0.02 0.04 0.05 0.06 0.06 0.07 0.07 0.07 0.08 0.07 0.06 0.06 0.05 0.04 0.03 0.04 0.08 0.17 0.30 0.35 0.32 0.28 0.21 0.16 0.09 0.04 0.02 0.01 0.00 0.00 0.00 0.00 0.00 0.00 0.00 0.00 0.00
0.00 0.02 0.04 0.06 0.07 0.06 0.07 0.08 0.08 0.09 0.10 0.09 0.08 0.07 0.05 0.04 0.05 0.07 0.12 0.19 0.27 0.28 0.24 0.20 0.15 0.12 0.07 0.03 0.01 0.00 0.00 0.00 0.00 0.00 0.00 0.00 0.00 0.00
0.01 0.03 0.04 0.04 0.05 0.07 0.07 0.07 0.08 0.10 0.10 0.10 0.08 0.07 0.06 0.06 0.07 0.09 0.11 0.15 0.21 0.26 0.25 0.20 0.14 0.10 0.07 0.03 0.01 0.00 0.00 0.00 0.00 0.00 0.00 0.00 0.00 0.00
0.01 0.03 0.05 0.05 0.04 0.04 0.05 0.06 0.07 0.08 0.07 0.06 0.06 0.06 0.05 0.06 0.08 0.10 0.11 0.13 0.17 0.23 0.26 0.21 0.14 0.08 0.05 0.03 0.02 0.01 0.00 0.00 0.00 0.00 0.00 0.00 0.00 0.00
0.00 0.00 0.02 0.04 0.04 0.03 0.03 0.04 0.05 0.05 0.05 0.04 0.04 0.04 0.05 0.06 0.07 0.11 0.14 0.14 0.15 0.19 0.22 0.20 0.14 0.10 0.08 0.07 0.05 0.03 0.01 0.00 0.00 0.00 0.00 0.00 0.00 0.00
0.00 0.00 0.01 0.02 0.04 0.03 0.03 0.03 0.03 0.04 0.03 0.02 0.02 0.03 0.04 0.05 0.06 0.09 0.14 0.14 0.12 0.14 0.18 0.21 0.22 0.18 0.13 0.11 0.07 0.04 0.02 0.01 0.00 0.00 0.00 0.00 0.00 0.00
0.02 0.01 0.00 0.00 0.01 0.02 0.03 0.04 0.03 0.03 0.03 0.02 0.02 0.02 0.03 0.03 0.04 0.07 0.11 0.13 0.12 0.12 0.17 0.23 0.26 0.24 0.18 0.15 0.13 0.09 0.06 0.03 0.01 0.00 0.00 0.00 0.00 0.00
MSLP
1013.39 1013.29 1013.17 1012.99 1012.75 1012.44 1012.07 1011.66 1011.24 1010.82 1010.45 1010.13 1009.87 1009.67 1009.54 1009.45 1009.42 1009.44 1009.53 1009.70 1009.97 1010.35 1010.82 1011.37 1011.98 1012.63 1013.28 1013.90 1014.49 1015.03 1015.54 1016.01 1016.47 1016.93 1017.39 1017.84 1018.28 1018.70
1013.20 1013.11 1012.99 1012.83 1012.60 1012.30 1011.94 1011.55 1011.14 1010.75 1010.39 1010.07 1009.82 1009.61 1009.46 1009.35 1009.28 1009.28 1009.34 1009.48 1009.72 1010.06 1010.49 1011.01 1011.59 1012.20 1012.81 1013.41 1013.96 1014.49 1014.98 1015.45 1015.90 1016.37 1016.83 1017.29 1017.74 1018.17
1012.80 1012.72 1012.61 1012.46 1012.25 1011.98 1011.68 1011.34 1011.00 1010.67 1010.37 1010.11 1009.89 1009.70 1009.56 1009.44 1009.37 1009.34 1009.37 1009.49 1009.70 1010.00 1010.40 1010.87 1011.40 1011.96 1012.52 1013.06 1013.57 1014.05 1014.50 1014.95 1015.39 1015.85 1016.32 1016.80 1017.27 1017.72
1012.26 1012.17 1012.07 1011.94 1011.78 1011.57 1011.34 1011.09 1010.84 1010.61 1010.39 1010.20 1010.04 1009.90 1009.77 1009.67 1009.60 1009.57 1009.59 1009.68 1009.87 1010.14 1010.50 1010.93 1011.40 1011.89 1012.38 1012.85 1013.29 1013.71 1014.12 1014.52 1014.94 1015.39 1015.86 1016.35 1016.85 1017.34
1011.63 1011.55 1011.46 1011.37 1011.26 1011.12 1010.98 1010.83 1010.68 1010.55 1010.42 1010.31 1010.21 1010.12 1010.02 1009.94 1009.88 1009.86 1009.88 1009.97 1010.15 1010.40 1010.73 1011.12 1011.54 1011.96 1012.38 1012.78 1013.15 1013.50 1013.84 1014.20 1014.59 1015.01 1015.48 1015.98 1016.50 1017.02
1010.98 1010.91 1010.85 1010.80 1010.75 1010.69 1010.63 1010.57 1010.52 1010.47 1010.43 1010.38 1010.33 1010.27 1010.21 1010.16 1010.12 1010.11 1010.15 1010.26 1010.44 1010.69 1011.01 1011.37 1011.75 1012.13 1012.49 1012.83 1013.13 1013.41 1013.70 1014.00 1014.35 1014.75 1015.20 1015.70 1016.23 1016.78
1010.36 1010.31 1010.29 1010.28 1010.28 1010.29 1010.30 1010.32 1010.33 1010.35 1010.35 1010.34 1010.32 1010.29 1010.25 1010.22 1010.21 1010.23 1010.30 1010.44 1010.66 1010.93 1011.26 1011.62 1011.99 1012.35 1012.68 1012.96 1013.22 1013.46 1013.70 1013.96 1014.27 1014.64 1015.07 1015.56 1016.09 1016.65
1009.79 1009.77 1009.78 1009.81 1009.86 1009.92 1009.98 1010.04 1010.09 1010.13 1010.15 1010.16 1010.15 1010.12 1010.10 1010.09 1010.10 1010.17 1010.29 1010.48 1010.74 1011.06 1011.43 1011.82 1012.21 1012.57 1012.89 1013.17 1013.41 1013.63 1013.85 1014.09 1014.38 1014.72 1015.13 1015.60 1016.11 1016.66
1009.26 1009.26 1009.30 1009.37 1009.45 1009.54 1009.62 1009.69 1009.75 1009.79 1009.80 1009.80 1009.78 1009.76 1009.75 1009.76 1009.81 1009.92 1010.10 1010.35 1010.67 1011.06 1011.48 1011.92 1012.35 1012.75 1013.11 1013.42 1013.68 1013.92 1014.14 1014.39 1014.67 1015.01 1015.39 1015.84 1016.32 1016.83
1008.71 1008.74 1008.81 1008.89 1008.99 1009.08 1009.17 1009.23 1009.28 1009.30 1009.30 1009.28 1009.26 1009.24 1009.24 1009.28 1009.37 1009.53 1009.77 1010.08 1010.47 1010.92 1011.41 1011.91 1012.41 1012.87 1013.29 1013.65 1013.98 1014.27 1014.54 1014.82 1015.12 1015.46 1015.84 1016.26 1016.71 1017.18
1008.11 1008.15 1008.23 1008.32 1008.42 1008.51 1008.59 1008.64 1008.66 1008.67 1008.65 1008.63 1008.61 1008.60 1008.63 1008.71 1008.85 1009.06 1009.35 1009.73 1010.17 1010.68 1011.23 1011.79 1012.35 1012.88 1013.38 1013.83 1014.24 1014.61 1014.96 1015.31 1015.66 1016.02 1016.40 1016.80 1017.22 1017.64
1007.42 1007.47 1007.55 1007.64 1007.73 1007.81 1007.86 1007.90 1007.91 1007.91 1007.90 1007.89 1007.89 1007.92 1007.99 1008.12 1008.31 1008.57 1008.91 1009.33 1009.82 1010.36 1010.95 1011.56 1012.17 1012.78 1013.35 1013.90 1014.40 1014.88 1015.32 1015.75 1016.17 1016.57 1016.97 1017.37 1017.76 1018.15
1006.66 1006.71 1006.78 1006.85 1006.92 1006.98 1007.02 1007.05 1007.06 1007.07 1007.08 1007.11 1007.16 1007.24 1007.37 1007.55 1007.79 1008.10 1008.47 1008.91 1009.42 1009.98 1010.58 1011.21 1011.86 1012.52 1013.17 1013.80 1014.40 1014.98 1015.53 1016.05 1016.54 1017.00 1017.44 1017.85 1018.23 1018.59
1005.88 1005.91 1005.95 1006.00 1006.04 1006.07 1006.10 1006.12 1006.14 1006.18 1006.23 1006.31 1006.43 1006.58 1006.78 1007.02 1007.30 1007.64 1008.03 1008.48 1008.98 1009.52 1010.12 1010.75 1011.42 1012.11 1012.81 1013.51 1014.20 1014.87 1015.51 1016.12 1016.69 1017.21 1017.69 1018.12 1018.51 1018.87
1005.14 1005.15 1005.15 1005.16 1005.16 1005.16 1005.17 1005.18 1005.22 1005.29 1005.39 1005.53 1005.72 1005.94 1006.20 1006.50 1006.82 1007.19 1007.58 1008.01 1008.48 1009.00 1009.57 1010.18 1010.84 1011.54 1012.27 1013.02 1013.78 1014.52 1015.24 1015.93 1016.56 1017.14 1017.67 1018.13 1018.54 1018.91
1004.51 1004.48 1004.44 1004.39 1004.35 1004.31 1004.29 1004.29 1004.34 1004.44 1004.58 1004.78 1005.03 1005.31 1005.62 1005.96 1006.32 1006.69 1007.07 1007.48 1007.92 1008.40 1008.93 1009.52 1010.16 1010.86 1011.60 1012.38 1013.18 1013.97 1014.75 1015.48 1016.17 1016.80 1017.36 1017.86 1018.30 1018.70
1004.02 1003.94 1003.86 1003.76 1003.66 1003.57 1003.52 1003.50 1003.55 1003.65 1003.83 1004.06 1004.35 1004.67 1005.02 1005.38 1005.75 1006.11 1006.49 1006.87 1007.28 1007.73 1008.23 1008.79 1009.42 1010.11 1010.86 1011.65 1012.47 1013.29 1014.09 1014.86 1015.57 1016.23 1016.82 1017.35 1017.83 1018.27
1003.65 1003.54 1003.40 1003.25 1003.10 1002.97 1002.87 1002.83 1002.85 1002.96 1003.13 1003.38 1003.67 1004.01 1004.37 1004.73 1005.10 1005.46 1005.82 1006.19 1006.58 1007.01 1007.50 1008.05 1008.67 1009.36 1010.11 1010.91 1011.74 1012.57 1013.38 1014.16 1014.88 1015.55 1016.16 1016.71 1017.22 1017.70
1003.34 1003.20 1003.03 1002.84 1002.65 1002.47 1002.33 1002.26 1002.26 1002.34 1002.50 1002.73 1003.02 1003.34 1003.69 1004.04 1004.39 1004.74 1005.09 1005.45 1005.84 1006.28 1006.77 1007.34 1007.97 1008.68 1009.44 1010.24 1011.07 1011.90 1012.71 1013.48 1014.20 1014.87 1015.48 1016.05 1016.59 1017.11
1003.00 1002.85 1002.66 1002.44 1002.22 1002.02 1001.86 1001.76 1001.74 1001.79 1001.93 1002.13 1002.39 1002.68 1003.00 1003.33 1003.66 1004.00 1004.35 1004.72 1005.13 1005.59 1006.11 1006.70 1007.37 1008.10 1008.88 1009.70 1010.53 1011.35 1012.15 1012.91 1013.61 1014.27 1014.89 1015.47 1016.02 1016.57
1002.55 1002.39 1002.20 1001.98 1001.76 1001.56 1001.39 1001.29 1001.25 1001.29 1001.40 1001.58 1001.80 1002.06 1002.35 1002.65 1002.96 1003.29 1003.64 1004.03 1004.46 1004.96 1005.53 1006.17 1006.88 1007.64 1008.45 1009.29 1010.12 1010.94 1011.72 1012.46 1013.16 1013.81 1014.42 1015.00 1015.57 1016.14
1001.91 1001.76 1001.59 1001.39 1001.19 1001.02 1000.88 1000.79 1000.77 1000.81 1000.92 1001.07 1001.27 1001.50 1001.76 1002.03 1002.33 1002.65 1003.00 1003.41 1003.88 1004.42 1005.04 1005.73 1006.48 1007.29 1008.13 1008.97 1009.81 1010.63 1011.40 1012.13 1012.81 1013.45 1014.06 1014.65 1015.23 1015.81
1001.08 1000.95 1000.80 1000.64 1000.49 1000.37 1000.29 1000.25 1000.27 1000.33 1000.45 1000.61 1000.80 1001.01 1001.25 1001.50 1001.79 1002.10 1002.47 1002.90 1003.40 1003.98 1004.63 1005.36 1006.15 1006.99 1007.85 1008.71 1009.55 1010.36 1011.12 1011.84 1012.51 1013.14 1013.75 1014.34 1014.92 1015.52
Thickness
5614 5617 5620 5623 5627 5632 5636 5640 5644 5651 5659 5669 5677 5685 5690 5696 5701 5705 5710 5713 5716 5718 5720 5722 5723 5723 5723 5723 5723 5722 5722 5721 5720 5719 5718 5717 5717 5716
5604 5607 5610 5613 5618 5623 5628 5633 5638 5642 5649 5659 5666 5673 5681 5688 5693 5698 5703 5707 5710 5713 5715 5717 5719 5720 5720 5721 5720 5720 5720 5720 5719 5718 5717 5716 5715 5714
5595 5597 5601 5604 5608 5613 5618 5624 5629 5635 5640 5649 5657 5664 5671 5677 5682 5688 5693 5698 5702 5706 5709 5712 5714 5715 5716 5717 5717 5718 5718 5718 5717 5717 5716 5715 5714 5712
5586 5588 5591 5595 5598 5602 5607 5613 5620 5626 5632 5638 5646 5653 5660 5667 5671 5676 5682 5687 5692 5696 5700 5704 5706 5709 5711 5712 5713 5714 5715 5715 5715 5714 5714 5713 5712 5711
5577 5579 5582 5584 5588 5592 5597 5603 5609 5616 5623 5629 5635 5643 5650 5656 5661 5665 5670 5675 5679 5684 5689 5694 5698 5701 5704 5707 5708 5710 5711 5711 5712 5711 5711 5711 5710 5709
5570 5571 5573 5575 5579 5582 5587 5592 5598 5605 5612 5619 5626 5632 5639 5647 5651 5654 5657 5662 5667 5673 5678 5683 5688 5692 5696 5700 5702 5705 5706 5707 5708 5708 5708 5708 5708 5707
5562 5562 5564 5566 5570 5573 5577 5581 5586 5593 5600 5608 5615 5622 5630 5636 5642 5647 5649 5652 5656 5662 5666 5672 5678 5683 5687 5692 5696 5699 5701 5703 5704 5704 5704 5705 5704 5703
5554 5554 5554 5557 5560 5564 5568 5572 5576 5582 5589 5596 5605 5612 5621 5628 5634 5638 5641 5643 5647 5652 5657 5660 5667 5673 5678 5684 5689 5693 5695 5697 5698 5699 5699 5699 5699 5698
5547 5546 5546 5549 5551 5553 5557 5561 5567 5572 5579 5586 5594 5603 5611 5620 5625 5631 5635 5638 5642 5646 5648 5650 5655 5661 5667 5674 5680 5685 5688 5691 5692 5693 5694 5693 5693 5692
5539 5538 5538 5539 5540 5541 5545 5550 5555 5561 5569 5576 5585 5593 5600 5609 5617 5624 5629 5630 5632 5636 5641 5642 5645 5650 5656 5663 5669 5676 5680 5683 5685 5686 5687 5686 5685 5685
5532 5530 5529 5529 5530 5530 5533 5538 5544 5550 5555 5564 5572 5581 5590 5598 5606 5613 5618 5622 5625 5627 5632 5636 5637 5640 5645 5651 5657 5665 5670 5674 5676 5678 5679 5678 5678 5677
5524 5522 5520 5520 5520 5520 5523 5527 5532 5538 5543 5551 5560 5569 5578 5587 5596 5605 5613 5617 5621 5622 5624 5630 5631 5636 5637 5639 5646 5653 5659 5663 5666 5669 5670 5670 5670 5669
5516 5514 5513 5511 5511 5511 5512 5516 5521 5525 5530 5538 5548 5558 5567 5577 5587 5597 5606 5612 5617 5620 5623 5627 5629 5633 5638 5634 5636 5641 5648 5652 5655 5656 5659 5661 5662 5663
5510 5508 5506 5503 5502 5503 5503 5505 5507 5510 5518 5526 5536 5547 5558 5569 5579 5588 5597 5605 5612 5617 5620 5624 5626 5629 5631 5631 5630 5631 5636 5641 5646 5648 5649 5650 5652 5654
5505 5502 5499 5497 5496 5496 5496 5496 5497 5501 5508 5516 5527 5539 5549 5558 5567 5576 5585 5594 5601 5607 5611 5616 5622 5624 5629 5631 5629 5628 5629 5632 5637 5640 5642 5644 5646 5647
5501 5498 5496 5494 5492 5490 5490 5489 5491 5495 5500 5509 5518 5527 5535 5545 5555 5566 5575 5584 5591 5596 5600 5606 5613 5619 5622 5625 5629 5628 5630 5631 5631 5634 5636 5637 5639 5640
5497 5495 5494 5492 5490 5488 5486 5485 5486 5488 5493 5500 5508 5517 5526 5536 5547 5557 5567 5575 5584 5590 5592 5595 5601 5607 5614 5619 5622 5626 5627 5627 5629 5629 5630 5632 5633 5634
5494 5494 5493 5491 5489 5487 5485 5484 5484 5485 5490 5495 5503 5511 5520 5531 5541 5549 5559 5568 5577 5583 5587 5589 5592 5596 5601 5606 5616 5621 5622 5623 5624 5624 5628 5629 5629 5629
5493 5494 5493 5491 5489 5487 5486 5485 5485 5487 5490 5495 5501 5508 5517 5526 5535 5543 5553 5561 5570 5577 5582 5585 5590 5597 5603 5608 5607 5615 5619 5619 5618 5619 5622 5626 5627 5626
5495 5495 5494 5493 5491 5490 5489 5488 5489 5489 5492 5497 5502 5508 5515 5523 5531 5540 5549 5558 5565 5571 5576 5581 5588 5597 5605 5610 5606 5606 5612 5615 5616 5616 5616 5616 5618 5618
5498 5497 5496 5495 5494 5493 5493 5493 5493 5494 5496 5499 5503 5509 5515 5521 5529 5538 5546 5552 5560 5568 5574 5580 5586 5589 5594 5596 5596 5598 5602 5606 5612 5614 5613 5613 5614 5614
5500 5499 5499 5498 5498 5498 5497 5497 5497 5498 5500 5503 5506 5510 5514 5520 5527 5535 5543 5550 5558 5565 5571 5574 5576 5581 5587 5594 5597 5596 5596 5597 5601 5604 5609 5616 5618 5617
5503 5503 5503 5502 5502 5501 5501 5502 5502 5503 5504 5506 5508 5511 5515 5520 5526 5533 5540 5547 5553 5560 5565 5569 5572 5576 5583 5589 5590 5591 5592 5592 5595 5598 5600 5604 5610 5613